Location: Belluno
(46.1450°N, 12.2210°E)
Time: 08:53:06
(UTC+01:00)

ISS - Visible Passes

Search period start: 22 January 2019 00:00
Search period end: 01 February 2019 00:00
Orbit: 404 x 410 km, 51.6° (Epoch: 23 January)

Date Brightness Start Highest point End Pass type
(mag) Time Alt. Az. Time Alt. Az. Time Alt. Az.
22 Jan -1.4 19:28:55 10° SW 19:30:01 19° SW 19:30:01 19° SW visible
23 Jan -2.8 18:37:55 10° SSW 18:40:54 32° SE 18:41:04 31° SE visible
24 Jan -2.0 17:47:18 10° S 17:49:43 19° SE 17:52:02 10° E visible
24 Jan -2.3 19:22:38 10° WSW 19:24:46 37° WSW 19:24:46 37° WSW visible
25 Jan -3.8 18:31:18 10° SW 18:34:34 69° SSE 18:35:40 38° ENE visible
25 Jan -0.3 20:08:12 10° W 20:08:23 11° W 20:08:23 11° W visible
26 Jan -3.0 17:40:09 10° SW 17:43:15 40° SE 17:46:24 10° ENE visible
26 Jan -2.6 19:16:36 10° W 19:19:13 39° NW 19:19:13 39° NW visible
27 Jan -3.6 18:25:04 10° WSW 18:28:20 63° NNW 18:29:59 26° NE visible
27 Jan -0.5 20:02:17 10° WNW 20:02:42 13° WNW 20:02:42 13° WNW visible
28 Jan -2.5 19:10:40 10° WNW 19:13:25 32° NNW 19:13:25 32° NNW visible
29 Jan -2.9 18:19:01 10° W 18:22:09 40° NNW 18:24:07 19° NE visible
29 Jan -0.7 19:56:12 10° WNW 19:56:49 14° NW 19:56:49 14° NW visible
30 Jan -2.5 19:04:38 10° WNW 19:07:29 30° N 19:07:29 30° N visible
31 Jan -2.6 18:12:59 10° WNW 18:16:00 31° N 18:18:09 16° NE visible
31 Jan -1.0 19:49:56 10° WNW 19:50:52 17° NW 19:50:52 17° NW visible
